Time,TemperatureF,DewpointF,PressureIn,WindDirection,WindDirectionDegrees,WindSpeedMPH,WindSpeedGustMPH,Humidity,HourlyPrecipIn,Conditions,Clouds,dailyrainin,SoftwareType,DateUTC
2013-03-04 00:01:00,33.0,27.0,29.86,West,281,1.0,2.0,78,0.00,,,0.01,,2013-03-04 05:01:00,
2013-03-04 00:11:00,33.0,27.0,29.86,West,281,1.0,2.0,78,0.00,,,0.01,,2013-03-04 05:11:00,
2013-03-04 00:22:00,33.0,27.0,29.86,West,281,1.0,3.0,78,0.00,,,0.01,,2013-03-04 05:22:00,
2013-03-04 00:32:00,32.0,26.0,29.86,WNW,298,0.0,6.0,78,0.00,,,0.01,,2013-03-04 05:32:00,
2013-03-04 00:42:00,32.0,26.0,29.86,WNW,298,0.0,6.0,78,0.00,,,0.01,,2013-03-04 05:42:00,
2013-03-04 00:52:00,32.0,26.0,29.86,West,262,0.0,1.0,79,0.00,,,0.01,,2013-03-04 05:52:00,
2013-03-04 01:02:00,32.0,26.0,29.86,WSW,240,1.0,3.0,79,0.00,,,0.01,,2013-03-04 06:02:00,
2013-03-04 01:11:00,32.0,26.0,29.86,WSW,240,1.0,3.0,79,0.00,,,0.01,,2013-03-04 06:11:00,
2013-03-04 01:22:00,33.0,27.0,29.86,WNW,285,1.0,3.0,78,0.00,,,0.01,,2013-03-04 06:22:00,
2013-03-04 01:32:00,33.0,27.0,29.86,West,259,0.0,2.0,78,0.00,,,0.01,,2013-03-04 06:32:00,
2013-03-04 01:42:00,33.0,27.0,29.86,West,259,0.0,2.0,78,0.00,,,0.01,,2013-03-04 06:42:00,
2013-03-04 01:52:00,33.0,26.0,29.86,South,191,2.0,5.0,76,0.00,,,0.01,,2013-03-04 06:52:00,
2013-03-04 02:02:00,33.0,27.0,29.86,SW,232,0.0,2.0,78,0.00,,,0.01,,2013-03-04 07:02:00,
2013-03-04 02:11:00,33.0,27.0,29.86,SW,232,0.0,2.0,78,0.00,,,0.01,,2013-03-04 07:11:00,
2013-03-04 02:22:00,32.0,26.0,29.86,WNW,284,0.0,5.0,77,0.00,,,0.01,,2013-03-04 07:22:00,
2013-03-04 02:32:00,32.0,26.0,29.86,West,267,1.0,3.0,77,0.00,,,0.01,,2013-03-04 07:32:00,
2013-03-04 02:42:00,32.0,26.0,29.86,West,267,1.0,3.0,77,0.00,,,0.01,,2013-03-04 07:42:00,
2013-03-04 02:52:00,32.0,25.0,29.86,SW,217,3.0,7.0,76,0.00,,,0.01,,2013-03-04 07:52:00,
2013-03-04 03:02:00,32.0,26.0,29.86,WSW,252,1.0,2.0,77,0.00,,,0.01,,2013-03-04 08:02:00,
2013-03-04 03:12:00,32.0,26.0,29.86,WSW,252,1.0,2.0,77,0.00,,,0.01,,2013-03-04 08:12:00,
2013-03-04 03:22:00,32.0,25.0,29.86,West,259,1.0,3.0,76,0.00,,,0.01,,2013-03-04 08:22:00,
2013-03-04 03:32:00,32.0,25.0,29.86,WNW,284,2.0,5.0,75,0.00,,,0.01,,2013-03-04 08:32:00,
2013-03-04 03:42:00,32.0,25.0,29.86,WNW,284,2.0,5.0,75,0.00,,,0.01,,2013-03-04 08:42:00,
2013-03-04 03:52:00,32.0,25.0,29.86,WSW,248,1.0,5.0,76,0.00,,,0.01,,2013-03-04 08:52:00,
2013-03-04 04:02:00,31.0,25.0,29.86,West,262,2.0,5.0,77,0.00,,,0.01,,2013-03-04 09:02:00,
2013-03-04 04:11:00,31.0,25.0,29.86,West,262,2.0,5.0,77,0.00,,,0.01,,2013-03-04 09:11:00,
2013-03-04 04:22:00,31.0,25.0,29.87,WNW,284,1.0,3.0,77,0.00,,,0.01,,2013-03-04 09:22:00,
2013-03-04 04:32:00,31.0,25.0,29.87,West,269,2.0,6.0,78,0.00,,,0.01,,2013-03-04 09:32:00,
2013-03-04 04:42:00,31.0,25.0,29.87,West,269,2.0,6.0,78,0.00,,,0.01,,2013-03-04 09:42:00,
2013-03-04 04:52:00,30.0,24.0,29.87,West,273,0.0,2.0,78,0.00,,,0.01,,2013-03-04 09:52:00,
2013-03-04 05:01:00,30.0,24.0,29.87,West,274,1.0,3.0,77,0.00,,,0.01,,2013-03-04 10:01:00,
2013-03-04 05:12:00,30.0,24.0,29.87,West,274,1.0,3.0,77,0.00,,,0.01,,2013-03-04 10:12:00,
2013-03-04 05:22:00,30.0,24.0,29.87,West,276,1.0,3.0,78,0.00,,,0.01,,2013-03-04 10:22:00,
2013-03-04 05:32:00,30.0,24.0,29.87,West,259,1.0,3.0,78,0.00,,,0.01,,2013-03-04 10:32:00,
2013-03-04 05:42:00,30.0,24.0,29.87,West,259,1.0,3.0,78,0.00,,,0.01,,2013-03-04 10:42:00,
2013-03-04 05:52:00,30.0,24.0,29.87,South,187,2.0,5.0,78,0.00,,,0.01,,2013-03-04 10:52:00,
2013-03-04 06:02:00,30.0,24.0,29.87,West,273,1.0,5.0,77,0.00,,,0.01,,2013-03-04 11:02:00,
2013-03-04 06:11:00,30.0,24.0,29.87,West,273,1.0,5.0,77,0.00,,,0.01,,2013-03-04 11:11:00,
2013-03-04 06:22:00,30.0,24.0,29.87,WSW,257,2.0,7.0,77,0.00,,,0.01,,2013-03-04 11:22:00,
2013-03-04 06:32:00,30.0,24.0,29.87,West,270,1.0,3.0,77,0.00,,,0.01,,2013-03-04 11:32:00,
2013-03-04 06:42:00,30.0,24.0,29.87,West,270,1.0,3.0,77,0.00,,,0.01,,2013-03-04 11:42:00,
2013-03-04 06:52:00,29.0,23.0,29.88,WSW,258,1.0,3.0,79,0.00,,,0.01,,2013-03-04 11:52:00,
2013-03-04 07:02:00,30.0,24.0,29.88,WNW,285,3.0,6.0,78,0.00,,,0.01,,2013-03-04 12:02:00,
2013-03-04 07:11:00,30.0,24.0,29.88,WNW,285,3.0,6.0,78,0.00,,,0.01,,2013-03-04 12:11:00,
2013-03-04 07:22:00,30.0,24.0,29.89,West,274,1.0,3.0,78,0.00,,,0.01,,2013-03-04 12:22:00,
2013-03-04 07:32:00,30.0,24.0,29.89,West,260,0.0,5.0,77,0.00,,,0.01,,2013-03-04 12:32:00,
2013-03-04 07:42:00,30.0,24.0,29.89,West,260,0.0,5.0,77,0.00,,,0.01,,2013-03-04 12:42:00,
2013-03-04 07:53:00,31.0,24.0,29.89,WSW,258,0.0,5.0,76,0.00,,,0.01,,2013-03-04 12:53:00,
2013-03-04 08:02:00,31.0,24.0,29.90,West,267,1.0,5.0,75,0.00,,,0.01,,2013-03-04 13:02:00,
2013-03-04 08:11:00,31.0,24.0,29.90,West,267,1.0,5.0,75,0.00,,,0.01,,2013-03-04 13:11:00,
2013-03-04 08:22:00,32.0,25.0,29.89,West,266,2.0,6.0,74,0.00,,,0.01,,2013-03-04 13:22:00,
2013-03-04 08:32:00,32.0,25.0,29.89,WNW,283,2.0,5.0,74,0.00,,,0.01,,2013-03-04 13:32:00,
2013-03-04 08:42:00,32.0,25.0,29.89,WNW,283,2.0,5.0,74,0.00,,,0.01,,2013-03-04 13:42:00,
2013-03-04 08:52:00,32.0,24.0,29.88,WNW,302,2.0,9.0,73,0.00,,,0.01,,2013-03-04 13:52:00,
2013-03-04 09:01:00,33.0,25.0,29.88,WSW,258,2.0,3.0,72,0.00,,,0.01,,2013-03-04 14:01:00,
2013-03-04 09:12:00,33.0,25.0,29.88,WSW,258,2.0,3.0,72,0.00,,,0.01,,2013-03-04 14:12:00,
2013-03-04 09:22:00,34.0,25.0,29.87,West,266,2.0,8.0,70,0.00,,,0.01,,2013-03-04 14:22:00,
2013-03-04 09:32:00,34.0,25.0,29.88,West,279,1.0,3.0,69,0.00,,,0.01,,2013-03-04 14:32:00,
2013-03-04 09:42:00,34.0,25.0,29.88,West,279,1.0,3.0,69,0.00,,,0.01,,2013-03-04 14:42:00,
2013-03-04 09:52:00,35.0,25.0,29.87,WSW,250,2.0,7.0,66,0.00,,,0.01,,2013-03-04 14:52:00,
2013-03-04 10:02:00,35.0,25.0,29.87,West,276,2.0,6.0,66,0.00,,,0.01,,2013-03-04 15:02:00,
2013-03-04 10:11:00,35.0,25.0,29.87,West,276,2.0,6.0,66,0.00,,,0.01,,2013-03-04 15:11:00,
2013-03-04 10:22:00,35.0,25.0,29.87,West,261,2.0,7.0,67,0.00,,,0.01,,2013-03-04 15:22:00,
2013-03-04 10:32:00,36.0,25.0,29.88,West,259,2.0,5.0,65,0.00,,,0.01,,2013-03-04 15:32:00,
2013-03-04 10:42:00,36.0,25.0,29.88,West,259,2.0,5.0,65,0.00,,,0.01,,2013-03-04 15:42:00,
2013-03-04 10:52:00,35.0,25.0,29.88,SW,235,2.0,6.0,66,0.00,,,0.01,,2013-03-04 15:52:00,
2013-03-04 11:03:00,35.0,25.0,29.87,NNW,333,2.0,8.0,67,0.00,,,0.01,,2013-03-04 16:03:00,
2013-03-04 11:11:00,35.0,25.0,29.87,NNW,333,2.0,8.0,67,0.00,,,0.01,,2013-03-04 16:11:00,
2013-03-04 11:21:00,36.0,25.0,29.87,West,281,2.0,6.0,64,0.00,,,0.01,,2013-03-04 16:21:00,
2013-03-04 11:32:00,36.0,25.0,29.87,WSW,256,2.0,5.0,64,0.00,,,0.01,,2013-03-04 16:32:00,
2013-03-04 11:42:00,36.0,25.0,29.87,WSW,256,2.0,5.0,64,0.00,,,0.01,,2013-03-04 16:42:00,
2013-03-04 11:52:00,38.0,26.0,29.87,West,273,3.0,8.0,62,0.00,,,0.00,,2013-03-04 16:52:00,
2013-03-04 12:02:00,37.0,26.0,29.87,West,277,2.0,7.0,64,0.00,,,0.00,,2013-03-04 17:02:00,
2013-03-04 12:11:00,37.0,26.0,29.87,West,277,2.0,7.0,64,0.00,,,0.00,,2013-03-04 17:11:00,
2013-03-04 12:22:00,36.0,26.0,29.87,NE,44,2.0,8.0,66,0.00,,,0.00,,2013-03-04 17:22:00,
2013-03-04 12:32:00,37.0,26.0,29.86,WNW,291,3.0,5.0,64,0.00,,,0.00,,2013-03-04 17:32:00,
2013-03-04 12:42:00,37.0,26.0,29.86,WNW,291,3.0,5.0,64,0.00,,,0.00,,2013-03-04 17:42:00,
2013-03-04 12:52:00,38.0,26.0,29.85,WNW,299,3.0,12.0,62,0.00,,,0.00,,2013-03-04 17:52:00,
2013-03-04 13:02:00,38.0,27.0,29.85,WNW,288,2.0,6.0,63,0.00,,,0.00,,2013-03-04 18:02:00,
2013-03-04 13:11:00,38.0,27.0,29.85,WNW,288,2.0,6.0,63,0.00,,,0.00,,2013-03-04 18:11:00,
2013-03-04 13:22:00,38.0,27.0,29.84,West,263,2.0,3.0,63,0.00,,,0.00,,2013-03-04 18:22:00,
2013-03-04 13:32:00,38.0,27.0,29.85,WSW,253,2.0,3.0,65,0.00,,,0.00,,2013-03-04 18:32:00,
2013-03-04 13:42:00,38.0,27.0,29.85,WSW,253,2.0,3.0,65,0.00,,,0.00,,2013-03-04 18:42:00,
2013-03-04 13:52:00,37.0,26.0,29.85,SW,232,1.0,3.0,65,0.00,,,0.00,,2013-03-04 18:52:00,
2013-03-04 14:02:00,38.0,28.0,29.85,NW,305,1.0,5.0,66,0.00,,,0.00,,2013-03-04 19:02:00,
2013-03-04 14:12:00,38.0,28.0,29.85,NW,305,1.0,5.0,66,0.00,,,0.00,,2013-03-04 19:12:00,
2013-03-04 14:22:00,37.0,27.0,29.85,West,266,2.0,5.0,66,0.00,,,0.00,,2013-03-04 19:22:00,
2013-03-04 14:32:00,37.0,27.0,29.85,West,276,3.0,7.0,68,0.00,,,0.00,,2013-03-04 19:32:00,
2013-03-04 14:42:00,37.0,27.0,29.85,West,276,3.0,7.0,68,0.00,,,0.00,,2013-03-04 19:42:00,
2013-03-04 14:52:00,36.0,28.0,29.86,WNW,288,2.0,13.0,72,0.00,,,0.00,,2013-03-04 19:52:00,
2013-03-04 15:02:00,36.0,29.0,29.86,East,84,3.0,6.0,74,0.00,,,0.00,,2013-03-04 20:02:00,
2013-03-04 15:11:00,36.0,29.0,29.86,East,84,3.0,6.0,74,0.00,,,0.00,,2013-03-04 20:11:00,
2013-03-04 15:22:00,35.0,28.0,29.85,WSW,245,2.0,3.0,76,0.00,,,0.00,,2013-03-04 20:22:00,
2013-03-04 15:32:00,36.0,29.0,29.86,West,270,1.0,3.0,75,0.00,,,0.00,,2013-03-04 20:32:00,
2013-03-04 15:42:00,36.0,29.0,29.86,West,270,1.0,3.0,75,0.00,,,0.00,,2013-03-04 20:42:00,
2013-03-04 15:53:00,36.0,28.0,29.86,NE,56,1.0,3.0,73,0.00,,,0.00,,2013-03-04 20:53:00,
2013-03-04 16:02:00,36.0,27.0,29.86,West,274,1.0,5.0,70,0.00,,,0.00,,2013-03-04 21:02:00,
2013-03-04 16:12:00,36.0,27.0,29.86,West,274,1.0,5.0,70,0.00,,,0.00,,2013-03-04 21:12:00,
2013-03-04 16:22:00,36.0,27.0,29.86,West,262,1.0,3.0,69,0.00,,,0.00,,2013-03-04 21:22:00,
2013-03-04 16:32:00,36.0,27.0,29.87,WNW,297,1.0,3.0,69,0.00,,,0.00,,2013-03-04 21:32:00,
2013-03-04 16:42:00,36.0,27.0,29.87,WNW,297,1.0,3.0,69,0.00,,,0.00,,2013-03-04 21:42:00,
2013-03-04 16:53:00,35.0,27.0,29.87,West,281,3.0,9.0,71,0.00,,,0.00,,2013-03-04 21:53:00,
2013-03-04 17:02:00,35.0,27.0,29.88,WSW,255,2.0,7.0,72,0.00,,,0.00,,2013-03-04 22:02:00,
2013-03-04 17:12:00,35.0,27.0,29.88,WSW,255,2.0,7.0,72,0.00,,,0.00,,2013-03-04 22:12:00,
2013-03-04 17:22:00,35.0,28.0,29.89,WNW,288,1.0,3.0,75,0.00,,,0.00,,2013-03-04 22:22:00,
2013-03-04 17:32:00,34.0,28.0,29.90,WSW,256,1.0,3.0,77,0.00,,,0.00,,2013-03-04 22:32:00,
2013-03-04 17:42:00,34.0,28.0,29.90,WSW,256,1.0,3.0,77,0.00,,,0.00,,2013-03-04 22:42:00,
2013-03-04 17:52:00,34.0,29.0,29.91,West,264,1.0,3.0,81,0.00,,,0.00,,2013-03-04 22:52:00,
2013-03-04 18:02:00,33.0,29.0,29.92,West,267,1.0,3.0,84,0.00,,,0.00,,2013-03-04 23:02:00,
2013-03-04 18:11:00,33.0,29.0,29.92,West,267,1.0,3.0,84,0.00,,,0.00,,2013-03-04 23:11:00,
2013-03-04 18:22:00,32.0,29.0,29.93,West,276,1.0,2.0,88,0.00,,,0.00,,2013-03-04 23:22:00,
2013-03-04 18:32:00,32.0,29.0,29.93,West,281,0.0,3.0,90,0.00,,,0.00,,2013-03-04 23:32:00,
2013-03-04 18:42:00,32.0,29.0,29.93,West,281,0.0,3.0,90,0.00,,,0.00,,2013-03-04 23:42:00,
2013-03-04 18:52:00,31.0,28.0,29.94,WSW,250,1.0,3.0,88,0.00,,,0.00,,2013-03-04 23:52:00,
2013-03-04 19:02:00,31.0,27.0,29.93,West,271,1.0,5.0,86,0.00,,,0.00,,2013-03-05 00:02:00,
2013-03-04 19:12:00,31.0,27.0,29.93,West,271,1.0,5.0,86,0.00,,,0.00,,2013-03-05 00:12:00,
2013-03-04 19:22:00,31.0,27.0,29.94,West,266,1.0,3.0,84,0.00,,,0.00,,2013-03-05 00:22:00,
2013-03-04 19:32:00,31.0,26.0,29.94,WSW,258,1.0,5.0,82,0.00,,,0.00,,2013-03-05 00:32:00,
2013-03-04 19:42:00,31.0,26.0,29.94,WSW,258,1.0,5.0,82,0.00,,,0.00,,2013-03-05 00:42:00,
2013-03-04 19:52:00,31.0,26.0,29.94,East,84,1.0,5.0,80,0.00,,,0.00,,2013-03-05 00:52:00,
2013-03-04 20:02:00,32.0,26.0,29.95,West,269,2.0,3.0,79,0.00,,,0.00,,2013-03-05 01:02:00,
2013-03-04 20:12:00,32.0,26.0,29.95,West,269,2.0,3.0,79,0.00,,,0.00,,2013-03-05 01:12:00,
2013-03-04 20:22:00,32.0,26.0,29.95,WNW,290,1.0,3.0,79,0.00,,,0.00,,2013-03-05 01:22:00,
2013-03-04 20:32:00,32.0,26.0,29.96,WNW,290,1.0,5.0,77,0.00,,,0.00,,2013-03-05 01:32:00,
2013-03-04 20:42:00,32.0,26.0,29.96,WNW,290,1.0,5.0,77,0.00,,,0.00,,2013-03-05 01:42:00,
2013-03-04 20:52:00,32.0,25.0,29.96,WNW,288,2.0,5.0,74,0.00,,,0.00,,2013-03-05 01:52:00,
2013-03-04 21:02:00,31.0,24.0,29.97,West,259,1.0,3.0,75,0.00,,,0.00,,2013-03-05 02:02:00,
2013-03-04 21:11:00,31.0,24.0,29.97,West,259,1.0,3.0,75,0.00,,,0.00,,2013-03-05 02:11:00,
2013-03-04 21:22:00,31.0,24.0,29.98,WSW,258,1.0,3.0,75,0.00,,,0.00,,2013-03-05 02:22:00,
2013-03-04 21:32:00,31.0,24.0,29.98,West,273,1.0,5.0,75,0.00,,,0.00,,2013-03-05 02:32:00,
2013-03-04 21:42:00,31.0,24.0,29.98,West,273,1.0,5.0,75,0.00,,,0.00,,2013-03-05 02:42:00,
2013-03-04 21:53:00,31.0,24.0,29.98,West,269,2.0,7.0,75,0.00,,,0.00,,2013-03-05 02:53:00,
2013-03-04 22:02:00,31.0,24.0,29.99,West,277,1.0,3.0,75,0.00,,,0.00,,2013-03-05 03:02:00,
2013-03-04 22:12:00,31.0,24.0,29.99,West,277,1.0,3.0,75,0.00,,,0.00,,2013-03-05 03:12:00,
2013-03-04 22:22:00,30.0,24.0,29.99,WNW,286,1.0,3.0,77,0.00,,,0.00,,2013-03-05 03:22:00,
2013-03-04 22:32:00,30.0,24.0,29.99,SW,227,1.0,5.0,77,0.00,,,0.00,,2013-03-05 03:32:00,
2013-03-04 22:42:00,30.0,24.0,29.99,SW,227,1.0,5.0,77,0.00,,,0.00,,2013-03-05 03:42:00,
2013-03-04 22:52:00,30.0,24.0,30.00,SW,217,1.0,5.0,77,0.00,,,0.00,,2013-03-05 03:52:00,
2013-03-04 23:02:00,30.0,24.0,30.00,WSW,243,1.0,3.0,78,0.00,,,0.00,,2013-03-05 04:02:00,
2013-03-04 23:12:00,30.0,24.0,30.00,WSW,243,1.0,3.0,78,0.00,,,0.00,,2013-03-05 04:12:00,
2013-03-04 23:22:00,30.0,24.0,30.00,West,271,1.0,3.0,77,0.00,,,0.00,,2013-03-05 04:22:00,
2013-03-04 23:32:00,30.0,24.0,30.00,West,266,1.0,2.0,78,0.00,,,0.00,,2013-03-05 04:32:00,
2013-03-04 23:42:00,30.0,24.0,30.00,West,266,1.0,2.0,78,0.00,,,0.00,,2013-03-05 04:42:00,
2013-03-04 23:52:00,30.0,24.0,30.01,West,269,1.0,3.0,77,0.00,,,0.00,,2013-03-05 04:52:00,